Orbital elements: 2011 EJ Earth MOID = 0.0069 AU Epoch 2011 Feb. 8.0 TT = JDT 2455600.5 MPC M 13.31571 (2000.0) P Q n 0.35904452 Peri. 300.48979 +0.11577269 -0.98217970 a 1.9605166 Node 141.96385 +0.97365485 +0.08273769 e 0.5945226 Incl. 13.90331 +0.19645082 +0.16875284 P 2.75 H 22.6 G 0.15 U 8